When you browse on this site, cookies collect data to enhance your experience and personalize the content and advertising you see.
Visit our Privacy Policy to learn more. By continuing to use the site, you agree to this use of cookies and data.
  • In Hungary
  • List of Countries
  • For 7 days
  • Water Temperature
  • Weather Map
  • News
  • Weather Widgets
  • user-avatar
    Login

    Hourly Weather Uruhskaya

    Today, 23 October, Wednesday

    Time Temperature Precipitation Wind Pressure Humidity
    00:00 +11°C° 0 mm 1 mps 746 mmHg 77%
    01:00 +10°C° 0 mm 1 mps 746 mmHg 79%
    02:00 +10°C° 0 mm 1 mps 745 mmHg 82%
    03:00 +10°C° 0 mm 1 mps 746 mmHg 86%
    04:00 +10°C° 0 mm 1 mps 746 mmHg 87%
    05:00 +10°C° 0 mm 1 mps 746 mmHg 88%
    06:00 +9°C° 0 mm 1 mps 746 mmHg 89%
    07:00 +11°C° 0 mm 1 mps 746 mmHg 84%
    08:00 +12°C° 0 mm 2 mps 746 mmHg 79%
    09:00 +13°C° 0 mm 2 mps 746 mmHg 74%
    10:00 +14°C° 0 mm 2 mps 746 mmHg 66%
    11:00 +16°C° 0 mm 3 mps 746 mmHg 58%
    12:00 +18°C° 0 mm 3 mps 746 mmHg 51%
    13:00 +18°C° 0 mm 3 mps 746 mmHg 48%
    14:00 +18°C° 0 mm 3 mps 745 mmHg 45%
    15:00 +19°C° 0 mm 3 mps 745 mmHg 43%
    16:00 +17°C° 0 mm 2 mps 745 mmHg 48%
    17:00 +16°C° 0 mm 2 mps 745 mmHg 53%
    18:00 +14°C° 0 mm 2 mps 746 mmHg 57%
    19:00 +14°C° 0 mm 2 mps 746 mmHg 60%
    20:00 +13°C° 0 mm 2 mps 746 mmHg 62%
    21:00 +13°C° 0 mm 2 mps 746 mmHg 64%
    22:00 +12°C° 0 mm 1 mps 746 mmHg 66%
    23:00 +12°C° 0 mm 1 mps 746 mmHg 68%

    Tomorrow, 24 October, Thursday

    Time Temperature Precipitation Wind Pressure Humidity
    00:00 +11°C° 0 mm 1 mps 745 mmHg 70%
    01:00 +11°C° 0 mm 1 mps 745 mmHg 71%
    02:00 +11°C° 0 mm 1 mps 745 mmHg 73%
    03:00 +10°C° 0 mm 1 mps 745 mmHg 74%
    04:00 +10°C° 0 mm 1 mps 745 mmHg 76%
    05:00 +10°C° 0 mm 1 mps 745 mmHg 78%
    06:00 +10°C° 0 mm 1 mps 745 mmHg 80%
    07:00 +10°C° 0 mm 2 mps 745 mmHg 75%
    08:00 +12°C° 0 mm 2 mps 745 mmHg 71%
    09:00 +13°C° 0 mm 2 mps 745 mmHg 66%
    10:00 +15°C° 0 mm 2 mps 745 mmHg 60%
    11:00 +17°C° 0 mm 3 mps 745 mmHg 53%
    12:00 +19°C° 0 mm 3 mps 745 mmHg 46%
    13:00 +19°C° 0 mm 3 mps 745 mmHg 44%
    14:00 +20°C° 0 mm 3 mps 745 mmHg 42%
    15:00 +20°C° 0 mm 3 mps 744 mmHg 40%
    16:00 +18°C° 0 mm 3 mps 745 mmHg 45%
    17:00 +17°C° 0 mm 3 mps 745 mmHg 50%
    18:00 +14°C° 0 mm 3 mps 745 mmHg 55%
    19:00 +14°C° 0 mm 3 mps 745 mmHg 57%
    20:00 +14°C° 0 mm 2 mps 745 mmHg 59%
    21:00 +13°C° 0 mm 2 mps 745 mmHg 61%
    22:00 +13°C° 0 mm 2 mps 744 mmHg 63%
    23:00 +13°C° 0 mm 2 mps 744 mmHg 66%

    Day after tomorrow, 25 October, Friday

    Time Temperature Precipitation Wind Pressure Humidity
    00:00 +12°C° 0 mm 2 mps 744 mmHg 69%
    01:00 +12°C° 0 mm 2 mps 744 mmHg 74%
    02:00 +12°C° 0 mm 2 mps 743 mmHg 78%
    03:00 +10°C° 0 mm 2 mps 743 mmHg 83%
    04:00 +10°C° 0 mm 2 mps 743 mmHg 85%
    05:00 +10°C° 0 mm 2 mps 743 mmHg 88%
    06:00 +10°C° 0 mm 2 mps 743 mmHg 90%
    07:00 +12°C° 0 mm 2 mps 743 mmHg 86%
    08:00 +13°C° 0 mm 2 mps 743 mmHg 82%
    09:00 +14°C° 0 mm 2 mps 743 mmHg 78%
    10:00 +14°C° 0 mm 3 mps 743 mmHg 71%
    11:00 +17°C° 0 mm 3 mps 743 mmHg 63%
    12:00 +18°C° 0 mm 3 mps 743 mmHg 56%
    13:00 +18°C° 0 mm 4 mps 743 mmHg 55%
    14:00 +19°C° 0 mm 4 mps 743 mmHg 54%
    15:00 +19°C° 0 mm 4 mps 743 mmHg 53%
    16:00 +17°C° 0 mm 4 mps 743 mmHg 58%
    17:00 +16°C° 0 mm 3 mps 743 mmHg 63%
    18:00 +15°C° 0 mm 2 mps 743 mmHg 68%
    19:00 +14°C° 0 mm 2 mps 743 mmHg 70%
    20:00 +14°C° 0 mm 2 mps 743 mmHg 73%
    21:00 +13°C° 0 mm 2 mps 743 mmHg 75%
    22:00 +12°C° 0 mm 2 mps 743 mmHg 77%
    23:00 +12°C° 0 mm 2 mps 743 mmHg 80%

    26 October, Saturday

    Time Temperature Precipitation Wind Pressure Humidity
    00:00 +12°C° 0 mm 2 mps 743 mmHg 82%
    01:00 +10°C° 0 mm 2 mps 743 mmHg 85%
    02:00 +10°C° 0 mm 2 mps 743 mmHg 88%
    03:00 +11°C° 0 mm 1 mps 743 mmHg 90%
    04:00 +11°C° 0 mm 1 mps 743 mmHg 92%
    05:00 +11°C° 0 mm 1 mps 743 mmHg 94%
    06:00 +10°C° 0 mm 1 mps 744 mmHg 95%
    07:00 +11°C° 0 mm 1 mps 744 mmHg 93%
    08:00 +12°C° 0 mm 1 mps 744 mmHg 91%
    09:00 +13°C° 0 mm 1 mps 744 mmHg 89%
    10:00 +14°C° 0 mm 1 mps 744 mmHg 86%
    11:00 +14°C° 0 mm 1 mps 744 mmHg 83%
    12:00 +15°C° 0 mm 2 mps 744 mmHg 80%
    13:00 +16°C° 0 mm 2 mps 744 mmHg 77%
    14:00 +17°C° 0 mm 2 mps 744 mmHg 74%
    15:00 +17°C° 0 mm 2 mps 743 mmHg 71%
    16:00 +17°C° 0 mm 2 mps 744 mmHg 75%
    17:00 +16°C° 0 mm 1 mps 744 mmHg 78%
    18:00 +16°C° 0 mm 1 mps 744 mmHg 82%
    19:00 +15°C° 0 mm 1 mps 744 mmHg 83%
    20:00 +15°C° 0 mm 1 mps 744 mmHg 84%
    21:00 +14°C° 0 mm 1 mps 744 mmHg 86%
    22:00 +14°C° 0 mm 1 mps 744 mmHg 87%
    23:00 +13°C° 0 mm 1 mps 744 mmHg 89%

    27 October, Sunday

    Time Temperature Precipitation Wind Pressure Humidity
    00:00 +13°C° 0 mm 1 mps 744 mmHg 90%
    01:00 +12°C° 0 mm 1 mps 744 mmHg 91%
    02:00 +12°C° 0 mm 1 mps 744 mmHg 92%
    03:00 +11°C° 0 mm 0 mps 744 mmHg 93%
    04:00 +11°C° 0 mm 0 mps 744 mmHg 94%
    05:00 +10°C° 0 mm 0 mps 744 mmHg 94%
    06:00 +10°C° 0 mm 0 mps 744 mmHg 94%
    07:00 +12°C° 0 mm 1 mps 744 mmHg 91%
    08:00 +13°C° 0 mm 1 mps 744 mmHg 88%
    09:00 +14°C° 0 mm 1 mps 744 mmHg 85%
    10:00 +15°C° 0 mm 2 mps 744 mmHg 79%
    11:00 +17°C° 0 mm 2 mps 744 mmHg 74%
    12:00 +18°C° 0 mm 2 mps 744 mmHg 69%
    13:00 +18°C° 0 mm 2 mps 744 mmHg 68%
    14:00 +18°C° 0 mm 2 mps 743 mmHg 66%
    15:00 +19°C° 0 mm 2 mps 743 mmHg 65%
    16:00 +18°C° 0 mm 3 mps 743 mmHg 68%
    17:00 +17°C° 0 mm 3 mps 743 mmHg 71%
    18:00 +16°C° 0 mm 3 mps 743 mmHg 74%
    19:00 +15°C° 0 mm 2 mps 743 mmHg 71%
    20:00 +15°C° 0 mm 2 mps 743 mmHg 67%
    21:00 +14°C° 0 mm 2 mps 743 mmHg 63%
    22:00 +13°C° 0 mm 2 mps 742 mmHg 61%
    23:00 +13°C° 0 mm 2 mps 742 mmHg 59%

    28 October, Monday

    Time Temperature Precipitation Wind Pressure Humidity
    00:00 +12°C° 0 mm 2 mps 742 mmHg 57%
    01:00 +12°C° 0 mm 2 mps 741 mmHg 58%
    02:00 +11°C° 0 mm 1 mps 741 mmHg 59%
    03:00 +11°C° 0 mm 1 mps 741 mmHg 61%
    04:00 +11°C° 0 mm 1 mps 741 mmHg 63%
    05:00 +10°C° 0 mm 1 mps 741 mmHg 64%
    06:00 +10°C° 0 mm 1 mps 741 mmHg 66%
    07:00 +11°C° 0 mm 1 mps 741 mmHg 62%
    08:00 +13°C° 0 mm 1 mps 740 mmHg 57%
    09:00 +14°C° 0 mm 1 mps 740 mmHg 53%
    10:00 +15°C° 0 mm 1 mps 740 mmHg 48%
    11:00 +18°C° 0 mm 1 mps 740 mmHg 43%
    12:00 +19°C° 0 mm 2 mps 740 mmHg 38%
    13:00 +19°C° 0 mm 2 mps 740 mmHg 38%
    14:00 +19°C° 0 mm 2 mps 740 mmHg 37%
    15:00 +20°C° 0 mm 2 mps 739 mmHg 37%
    16:00 +18°C° 0 mm 2 mps 740 mmHg 42%
    17:00 +17°C° 0 mm 2 mps 740 mmHg 47%
    18:00 +15°C° 0 mm 2 mps 740 mmHg 52%
    19:00 +15°C° 0 mm 1 mps 740 mmHg 54%
    20:00 +14°C° 0 mm 1 mps 740 mmHg 57%
    21:00 +13°C° 0 mm 1 mps 740 mmHg 59%
    22:00 +13°C° 0 mm 1 mps 740 mmHg 61%
    23:00 +13°C° 0 mm 1 mps 740 mmHg 62%

    29 October, Tuesday

    Time Temperature Precipitation Wind Pressure Humidity
    00:00 +13°C° 0 mm 1 mps 740 mmHg 63%
    01:00 +13°C° 0 mm 1 mps 740 mmHg 64%
    02:00 +12°C° 0 mm 1 mps 740 mmHg 65%
    03:00 +12°C° 0 mm 1 mps 740 mmHg 66%
    04:00 +12°C° 0 mm 1 mps 740 mmHg 67%
    05:00 +12°C° 0 mm 2 mps 740 mmHg 68%
    06:00 +12°C° 0 mm 2 mps 740 mmHg 69%
    07:00 +13°C° 0 mm 2 mps 740 mmHg 63%
    08:00 +15°C° 0 mm 2 mps 740 mmHg 57%
    09:00 +16°C° 0 mm 2 mps 740 mmHg 51%
    10:00 +18°C° 0 mm 2 mps 740 mmHg 48%
    11:00 +19°C° 0 mm 2 mps 740 mmHg 45%
    12:00 +21°C° 0 mm 2 mps 740 mmHg 42%
    13:00 +21°C° 0 mm 2 mps 740 mmHg 41%
    14:00 +21°C° 0 mm 2 mps 740 mmHg 40%
    15:00 +21°C° 0 mm 2 mps 740 mmHg 39%
    16:00 +21°C° 0 mm 1 mps 740 mmHg 44%
    17:00 +19°C° 0 mm 1 mps 740 mmHg 48%
    18:00 +18°C° 0 mm 1 mps 740 mmHg 52%
    19:00 +16°C° 0 mm 1 mps 740 mmHg 55%
    20:00 +14°C° 0 mm 0 mps 740 mmHg 57%
    21:00 +14°C° 0 mm 0 mps 740 mmHg 60%
    22:00 +13°C° 0 mm 0 mps 740 mmHg 61%
    23:00 +13°C° 0 mm 0 mps 740 mmHg 62%
    Show more